Simultaneous Nadir Overpasses (SNOs) Predictions

Prediction of SNOs between GOES-17 and TERRA Satellite Orbit:

Table of predicted SNOs for the next 14.0 days since TLE Epoch: 8/24/2019
Index Date Time (GOES-17) GOES-17 Lat,Lon TERRA Lat,Lon Distance(km) Time Diff (sec)
1 08/25/2019 07:28:05 -0.02,-137.21 0.48,-134.87 265.53 80
2 08/25/2019 19:52:00 0.03,-137.21 0.64,-140.02 320.33 80
3 08/27/2019 19:37:08 0.03,-137.20 0.01,-137.07 14.80 80
4 08/29/2019 19:24:56 0.03,-137.18 -0.62,-134.11 349.20 80
5 08/30/2019 07:49:00 -0.03,-137.17 -0.49,-139.30 242.17 80
6 09/01/2019 07:34:08 -0.03,-137.15 0.14,-136.34 91.77 80
7 09/01/2019 19:58:02 0.03,-137.15 0.97,-141.50 494.59 80
8 09/03/2019 07:21:56 -0.03,-137.13 0.78,-133.39 425.39 80
9 09/03/2019 19:45:51 0.03,-137.12 0.34,-138.54 161.09 80
10 09/05/2019 19:30:59 0.04,-137.09 -0.30,-135.58 171.93 80
11 09/06/2019 07:55:02 -0.04,-137.08 -0.81,-140.77 419.77 80




NCC Satellite Simultaneous Nadir Overpasses (SNOs) Prediction Service
